Voltar ao catálogo

NIGERIASAT 2

AtivoCiênciaSSO
NORAD 37789·PAYLOAD·🇳🇬 Nigeria

Lançado Aug 17, 2011 de Dombarovsky

Loading…

Próximas Passagens (próximas 24 horas)

TLE

AtualizadoSource: Space-Track

Época: Sep 14, 2026, 14:57 UTC

1 37789U 11044B   26257.62299853  .00000030  00000-0  12950-4 0  9994
2 37789  97.8889 231.8707 0029362 193.7157 287.6241 14.70579904803713

Acompanhe NIGERIASAT 2 em tempo real com AllMySat

Download on the App Store